Time,TemperatureF,DewpointF,PressureIn,WindDirection,WindDirectionDegrees,WindSpeedMPH,WindSpeedGustMPH,Humidity,HourlyPrecipIn,Conditions,Clouds,dailyrainin,SolarRadiationWatts/m^2,SoftwareType,DateUTC
2013-02-24 00:00:00,35.9,31.2,29.93,North,5,0.0,0.0,83,0.00,,,0.00,0,Wunderground v.1.15,2013-02-24 06:00:00,
2013-02-24 00:10:00,35.7,31.0,29.93,North,5,0.0,0.0,83,0.00,,,0.00,0,Wunderground v.1.15,2013-02-24 06:10:00,
2013-02-24 00:15:00,35.6,30.9,29.93,North,5,0.0,0.0,83,0.00,,,0.00,0,Wunderground v.1.15,2013-02-24 06:15:00,
2013-02-24 00:25:00,35.2,30.9,29.93,North,5,0.0,0.0,84,0.00,,,0.00,0,Wunderground v.1.15,2013-02-24 06:25:00,
2013-02-24 00:30:00,35.0,30.7,29.93,North,5,0.0,0.0,84,0.00,,,0.00,0,Wunderground v.1.15,2013-02-24 06:30:00,
2013-02-24 00:35:00,34.8,30.8,29.93,North,5,0.0,0.0,85,0.00,,,0.00,0,Wunderground v.1.15,2013-02-24 06:35:00,
2013-02-24 00:45:00,34.6,30.6,29.93,North,5,0.0,0.0,85,0.00,,,0.00,0,Wunderground v.1.15,2013-02-24 06:45:00,
2013-02-24 00:50:00,34.4,30.4,29.93,North,5,0.0,0.0,85,0.00,,,0.00,0,Wunderground v.1.15,2013-02-24 06:50:00,
2013-02-24 00:55:00,34.3,30.5,29.93,North,5,0.0,0.0,86,0.00,,,0.00,0,Wunderground v.1.15,2013-02-24 06:55:00,
2013-02-24 01:05:00,34.0,30.3,29.93,North,5,0.0,0.0,86,0.00,,,0.00,0,Wunderground v.1.15,2013-02-24 07:05:00,
2013-02-24 01:15:00,33.6,29.9,29.92,North,5,0.0,1.0,86,0.00,,,0.00,0,Wunderground v.1.15,2013-02-24 07:15:00,
2013-02-24 01:20:00,33.5,30.0,29.93,North,5,0.0,0.0,87,0.00,,,0.00,0,Wunderground v.1.15,2013-02-24 07:20:00,
2013-02-24 01:30:00,33.2,29.5,29.92,North,5,0.0,0.0,86,0.00,,,0.00,0,Wunderground v.1.15,2013-02-24 07:30:00,
2013-02-24 01:35:00,33.0,29.6,29.92,North,5,0.0,0.0,87,0.00,,,0.00,0,Wunderground v.1.15,2013-02-24 07:35:00,
2013-02-24 01:45:00,33.0,29.8,29.92,North,5,0.0,0.0,88,0.00,,,0.00,0,Wunderground v.1.15,2013-02-24 07:45:00,
2013-02-24 01:50:00,33.0,29.8,29.91,North,5,0.0,0.0,88,0.00,,,0.00,0,Wunderground v.1.15,2013-02-24 07:50:00,
2013-02-24 02:00:00,32.8,29.4,29.91,North,5,0.0,0.0,87,0.00,,,0.00,0,Wunderground v.1.15,2013-02-24 08:00:00,
2013-02-24 02:05:00,32.6,29.4,29.91,North,5,0.0,0.0,88,0.00,,,0.00,0,Wunderground v.1.15,2013-02-24 08:05:00,
2013-02-24 02:10:00,32.4,29.0,29.91,North,5,0.0,0.0,87,0.00,,,0.00,0,Wunderground v.1.15,2013-02-24 08:10:00,
2013-02-24 02:15:00,32.3,29.1,29.91,North,5,0.0,0.0,88,0.00,,,0.00,0,Wunderground v.1.15,2013-02-24 08:15:00,
2013-02-24 02:20:00,32.1,28.9,29.91,North,5,0.0,0.0,88,0.00,,,0.00,0,Wunderground v.1.15,2013-02-24 08:20:00,
2013-02-24 02:25:00,31.9,28.8,29.91,North,5,0.0,0.0,88,0.00,,,0.00,0,Wunderground v.1.15,2013-02-24 08:25:00,
2013-02-24 02:30:00,31.8,28.7,29.91,North,5,0.0,0.0,88,0.00,,,0.00,0,Wunderground v.1.15,2013-02-24 08:30:00,
2013-02-24 02:40:00,31.6,28.7,29.90,North,5,0.0,0.0,89,0.00,,,0.00,0,Wunderground v.1.15,2013-02-24 08:40:00,
2013-02-24 02:45:00,31.5,28.6,29.90,North,5,0.0,0.0,89,0.00,,,0.00,0,Wunderground v.1.15,2013-02-24 08:45:00,
2013-02-24 02:55:00,31.2,28.3,29.90,North,5,0.0,0.0,89,0.00,,,0.00,0,Wunderground v.1.15,2013-02-24 08:55:00,
2013-02-24 03:00:00,31.1,28.5,29.90,North,5,0.0,0.0,90,0.00,,,0.00,0,Wunderground v.1.15,2013-02-24 09:00:00,
2013-02-24 03:05:00,31.1,28.5,29.90,North,5,0.0,0.0,90,0.00,,,0.00,0,Wunderground v.1.15,2013-02-24 09:05:00,
2013-02-24 03:10:00,31.1,28.5,29.90,North,5,0.0,0.0,90,0.00,,,0.00,0,Wunderground v.1.15,2013-02-24 09:10:00,
2013-02-24 03:15:00,31.2,28.6,29.90,North,5,0.0,0.0,90,0.00,,,0.00,0,Wunderground v.1.15,2013-02-24 09:15:00,
2013-02-24 03:20:00,31.4,29.1,29.90,North,5,0.0,0.0,91,0.00,,,0.00,0,Wunderground v.1.15,2013-02-24 09:20:00,
2013-02-24 03:30:00,31.1,28.2,29.90,North,5,0.0,0.0,89,0.00,,,0.00,0,Wunderground v.1.15,2013-02-24 09:30:00,
2013-02-24 03:35:00,31.0,28.4,29.89,North,5,0.0,0.0,90,0.00,,,0.00,0,Wunderground v.1.15,2013-02-24 09:35:00,
2013-02-24 03:40:00,31.0,28.4,29.90,North,5,0.0,0.0,90,0.00,,,0.00,0,Wunderground v.1.15,2013-02-24 09:40:00,
2013-02-24 03:45:00,30.9,28.3,29.90,North,5,0.0,0.0,90,0.00,,,0.00,0,Wunderground v.1.15,2013-02-24 09:45:00,
2013-02-24 03:50:00,30.9,28.3,29.89,North,5,0.0,0.0,90,0.00,,,0.00,0,Wunderground v.1.15,2013-02-24 09:50:00,
2013-02-24 03:55:00,30.7,28.1,29.89,North,5,0.0,0.0,90,0.00,,,0.00,0,Wunderground v.1.15,2013-02-24 09:55:00,
2013-02-24 04:00:00,30.6,28.0,29.88,North,5,0.0,0.0,90,0.00,,,0.00,0,Wunderground v.1.15,2013-02-24 10:00:00,
2013-02-24 04:10:00,30.6,28.3,29.88,North,5,0.0,0.0,91,0.00,,,0.00,0,Wunderground v.1.15,2013-02-24 10:10:00,
2013-02-24 04:20:00,30.4,27.8,29.88,North,5,0.0,0.0,90,0.00,,,0.00,0,Wunderground v.1.15,2013-02-24 10:20:00,
2013-02-24 04:25:00,30.3,27.7,29.89,North,5,0.0,0.0,90,0.00,,,0.00,0,Wunderground v.1.15,2013-02-24 10:25:00,
2013-02-24 04:35:00,30.3,28.0,29.89,North,5,0.0,0.0,91,0.00,,,0.00,0,Wunderground v.1.15,2013-02-24 10:35:00,
2013-02-24 04:40:00,30.2,27.9,29.89,North,5,0.0,0.0,91,0.00,,,0.00,0,Wunderground v.1.15,2013-02-24 10:40:00,
2013-02-24 04:45:00,30.2,27.9,29.90,North,5,0.0,0.0,91,0.00,,,0.00,0,Wunderground v.1.15,2013-02-24 10:45:00,
2013-02-24 04:50:00,30.1,27.8,29.89,North,5,0.0,0.0,91,0.00,,,0.00,0,Wunderground v.1.15,2013-02-24 10:50:00,
2013-02-24 04:55:00,30.1,27.8,29.89,North,5,0.0,0.0,91,0.00,,,0.00,0,Wunderground v.1.15,2013-02-24 10:55:00,
2013-02-24 05:00:00,30.0,27.7,29.89,North,5,0.0,0.0,91,0.00,,,0.00,0,Wunderground v.1.15,2013-02-24 11:00:00,
2013-02-24 05:05:00,29.9,27.6,29.88,North,5,0.0,0.0,91,0.00,,,0.00,0,Wunderground v.1.15,2013-02-24 11:05:00,
2013-02-24 05:15:00,29.9,27.6,29.89,North,5,0.0,0.0,91,0.00,,,0.00,0,Wunderground v.1.15,2013-02-24 11:15:00,
2013-02-24 05:20:00,29.9,27.6,29.89,North,5,0.0,0.0,91,0.00,,,0.00,0,Wunderground v.1.15,2013-02-24 11:20:00,
2013-02-24 05:25:00,29.8,27.5,29.89,North,5,0.0,0.0,91,0.00,,,0.00,0,Wunderground v.1.15,2013-02-24 11:25:00,
2013-02-24 05:30:00,29.7,27.4,29.89,North,5,0.0,0.0,91,0.00,,,0.00,0,Wunderground v.1.15,2013-02-24 11:30:00,
2013-02-24 05:35:00,29.6,27.3,29.89,North,5,0.0,0.0,91,0.00,,,0.00,0,Wunderground v.1.15,2013-02-24 11:35:00,
2013-02-24 05:45:00,29.6,27.3,29.89,North,5,0.0,0.0,91,0.00,,,0.00,0,Wunderground v.1.15,2013-02-24 11:45:00,
2013-02-24 05:50:00,29.5,27.2,29.89,North,5,0.0,0.0,91,0.00,,,0.00,0,Wunderground v.1.15,2013-02-24 11:50:00,
2013-02-24 05:55:00,29.4,27.1,29.89,North,5,0.0,1.0,91,0.00,,,0.00,0,Wunderground v.1.15,2013-02-24 11:55:00,
2013-02-24 06:00:00,29.5,27.5,29.89,North,5,0.0,0.0,92,0.00,,,0.00,0,Wunderground v.1.15,2013-02-24 12:00:00,
2013-02-24 06:10:00,29.5,27.5,29.89,North,5,0.0,0.0,92,0.00,,,0.00,0,Wunderground v.1.15,2013-02-24 12:10:00,
2013-02-24 06:20:00,29.4,27.4,29.90,North,5,0.0,0.0,92,0.00,,,0.00,0,Wunderground v.1.15,2013-02-24 12:20:00,
2013-02-24 06:25:00,29.5,27.5,29.90,North,5,0.0,0.0,92,0.00,,,0.00,0,Wunderground v.1.15,2013-02-24 12:25:00,
2013-02-24 06:30:00,29.4,27.4,29.90,North,5,0.0,0.0,92,0.00,,,0.00,0,Wunderground v.1.15,2013-02-24 12:30:00,
2013-02-24 06:40:00,29.4,27.4,29.90,North,5,0.0,0.0,92,0.00,,,0.00,0,Wunderground v.1.15,2013-02-24 12:40:00,
2013-02-24 06:45:00,29.3,27.3,29.90,North,5,0.0,0.0,92,0.00,,,0.00,0,Wunderground v.1.15,2013-02-24 12:45:00,
2013-02-24 06:50:00,29.2,27.2,29.90,North,5,0.0,0.0,92,0.00,,,0.00,0,Wunderground v.1.15,2013-02-24 12:50:00,
2013-02-24 06:55:00,29.2,27.2,29.90,North,5,0.0,0.0,92,0.00,,,0.00,0,Wunderground v.1.15,2013-02-24 12:55:00,
2013-02-24 07:00:00,29.2,27.2,29.90,North,5,0.0,0.0,92,0.00,,,0.00,0,Wunderground v.1.15,2013-02-24 13:00:00,
2013-02-24 07:05:00,29.3,27.3,29.91,North,5,0.0,0.0,92,0.00,,,0.00,5,Wunderground v.1.15,2013-02-24 13:05:00,
2013-02-24 07:10:00,29.4,27.6,29.91,North,5,0.0,0.0,93,0.00,,,0.00,9,Wunderground v.1.15,2013-02-24 13:10:00,
2013-02-24 07:20:00,29.6,27.8,29.91,North,5,0.0,0.0,93,0.00,,,0.00,16,Wunderground v.1.15,2013-02-24 13:20:00,
2013-02-24 07:30:00,29.8,28.0,29.90,North,5,0.0,0.0,93,0.00,,,0.00,23,Wunderground v.1.15,2013-02-24 13:30:00,
2013-02-24 07:40:00,30.6,29.1,29.90,North,5,0.0,0.0,94,0.00,,,0.00,47,Wunderground v.1.15,2013-02-24 13:40:00,
2013-02-24 07:45:00,30.8,29.3,29.90,North,5,0.0,0.0,94,0.00,,,0.00,69,Wunderground v.1.15,2013-02-24 13:45:00,
2013-02-24 07:55:00,32.0,30.5,29.90,North,5,0.0,0.0,94,0.00,,,0.00,100,Wunderground v.1.15,2013-02-24 13:55:00,
2013-02-24 08:00:00,32.9,31.4,29.90,North,5,0.0,0.0,94,0.00,,,0.00,118,Wunderground v.1.15,2013-02-24 14:00:00,
2013-02-24 08:05:00,34.0,32.2,29.91,North,5,0.0,0.0,93,0.00,,,0.00,137,Wunderground v.1.15,2013-02-24 14:05:00,
2013-02-24 08:10:00,35.1,33.0,29.91,North,5,0.0,0.0,92,0.00,,,0.00,158,Wunderground v.1.15,2013-02-24 14:10:00,
2013-02-24 08:15:00,36.4,34.0,29.91,North,5,0.0,0.0,91,0.00,,,0.00,179,Wunderground v.1.15,2013-02-24 14:15:00,
2013-02-24 08:20:00,37.8,35.1,29.91,North,5,0.0,0.0,90,0.00,,,0.00,199,Wunderground v.1.15,2013-02-24 14:20:00,
2013-02-24 08:30:00,40.5,36.6,29.91,North,5,0.0,0.0,86,0.00,,,0.00,239,Wunderground v.1.15,2013-02-24 14:30:00,
2013-02-24 08:35:00,42.2,37.7,29.91,North,5,0.0,0.0,84,0.00,,,0.00,260,Wunderground v.1.15,2013-02-24 14:35:00,
2013-02-24 08:45:00,45.2,39.4,29.91,North,5,0.0,0.0,80,0.00,,,0.00,295,Wunderground v.1.15,2013-02-24 14:45:00,
2013-02-24 08:50:00,46.4,40.2,29.91,NE,52,0.0,0.0,79,0.00,,,0.00,313,Wunderground v.1.15,2013-02-24 14:50:00,
2013-02-24 09:00:00,48.9,41.7,29.91,ENE,69,0.0,0.0,76,0.00,,,0.00,346,Wunderground v.1.15,2013-02-24 15:00:00,
2013-02-24 09:05:00,50.3,42.3,29.90,ESE,113,0.0,0.0,74,0.00,,,0.00,362,Wunderground v.1.15,2013-02-24 15:05:00,
2013-02-24 09:15:00,52.5,43.4,29.90,ESE,112,1.0,1.0,71,0.00,,,0.00,399,Wunderground v.1.15,2013-02-24 15:15:00,
2013-02-24 09:20:00,53.5,44.0,29.90,East,98,1.0,1.0,70,0.00,,,0.00,415,Wunderground v.1.15,2013-02-24 15:20:00,
2013-02-24 09:25:00,54.7,44.7,29.90,East,96,1.0,1.0,69,0.00,,,0.00,431,Wunderground v.1.15,2013-02-24 15:25:00,
2013-02-24 09:35:00,56.6,45.4,29.89,SE,124,1.0,1.0,66,0.00,,,0.00,462,Wunderground v.1.15,2013-02-24 15:35:00,
2013-02-24 09:45:00,58.2,46.5,29.88,SSE,157,2.0,2.0,65,0.00,,,0.00,496,Wunderground v.1.15,2013-02-24 15:45:00,
2013-02-24 09:50:00,59.0,47.2,29.88,ESE,111,2.0,2.0,65,0.00,,,0.00,510,Wunderground v.1.15,2013-02-24 15:50:00,
2013-02-24 09:55:00,60.1,47.9,29.88,ENE,71,2.0,4.0,64,0.00,,,0.00,526,Wunderground v.1.15,2013-02-24 15:55:00,
2013-02-24 10:05:00,61.0,47.9,29.87,SE,128,3.0,9.0,62,0.00,,,0.00,550,Wunderground v.1.15,2013-02-24 16:05:00,
2013-02-24 10:15:00,61.3,47.7,29.87,ESE,102,6.0,8.0,61,0.00,,,0.00,578,Wunderground v.1.15,2013-02-24 16:15:00,
2013-02-24 10:20:00,61.8,48.2,29.88,ESE,107,5.0,5.0,61,0.00,,,0.00,592,Wunderground v.1.15,2013-02-24 16:20:00,
2013-02-24 10:25:00,62.4,47.9,29.87,East,101,3.0,5.0,59,0.00,,,0.00,608,Wunderground v.1.15,2013-02-24 16:25:00,
2013-02-24 10:30:00,62.6,47.6,29.87,SE,136,4.0,4.0,58,0.00,,,0.00,615,Wunderground v.1.15,2013-02-24 16:30:00,
2013-02-24 10:35:00,62.5,47.5,29.87,SE,125,4.0,8.0,58,0.00,,,0.00,626,Wunderground v.1.15,2013-02-24 16:35:00,
2013-02-24 10:45:00,62.4,47.0,29.87,ESE,115,5.0,9.0,57,0.00,,,0.00,652,Wunderground v.1.15,2013-02-24 16:45:00,
2013-02-24 10:50:00,62.8,46.9,29.86,SE,140,5.0,5.0,56,0.00,,,0.00,661,Wunderground v.1.15,2013-02-24 16:50:00,
2013-02-24 10:55:00,63.3,46.4,29.86,South,177,5.0,5.0,54,0.00,,,0.00,671,Wunderground v.1.15,2013-02-24 16:55:00,
2013-02-24 11:00:00,63.4,46.0,29.86,East,85,5.0,5.0,53,0.00,,,0.00,682,Wunderground v.1.15,2013-02-24 17:00:00,
2013-02-24 11:05:00,63.8,46.3,29.86,SE,129,4.0,5.0,53,0.00,,,0.00,689,Wunderground v.1.15,2013-02-24 17:05:00,
2013-02-24 11:10:00,64.3,46.8,29.86,SE,126,4.0,4.0,53,0.00,,,0.00,696,Wunderground v.1.15,2013-02-24 17:10:00,
2013-02-24 11:15:00,64.5,46.5,29.86,SE,141,4.0,4.0,52,0.00,,,0.00,707,Wunderground v.1.15,2013-02-24 17:15:00,
2013-02-24 11:25:00,65.2,46.6,29.86,East,94,3.0,3.0,51,0.00,,,0.00,719,Wunderground v.1.15,2013-02-24 17:25:00,
2013-02-24 11:30:00,65.8,47.2,29.86,SE,128,3.0,3.0,51,0.00,,,0.00,728,Wunderground v.1.15,2013-02-24 17:30:00,
2013-02-24 11:40:00,66.2,46.5,29.85,South,175,4.0,4.0,49,0.00,,,0.00,744,Wunderground v.1.15,2013-02-24 17:40:00,
2013-02-24 11:45:00,66.7,46.4,29.85,SE,124,3.0,4.0,48,0.00,,,0.00,749,Wunderground v.1.15,2013-02-24 17:45:00,
2013-02-24 11:50:00,66.8,46.5,29.84,SSE,154,4.0,4.0,48,0.00,,,0.00,754,Wunderground v.1.15,2013-02-24 17:50:00,
2013-02-24 12:00:00,67.3,47.5,29.84,SE,139,4.0,4.0,49,0.00,,,0.00,759,Wunderground v.1.15,2013-02-24 18:00:00,
2013-02-24 12:10:00,67.8,47.4,29.84,SE,146,4.0,4.0,48,0.00,,,0.00,772,Wunderground v.1.15,2013-02-24 18:10:00,
2013-02-24 12:20:00,68.2,47.2,29.83,SE,127,4.0,4.0,47,0.00,,,0.00,777,Wunderground v.1.15,2013-02-24 18:20:00,
2013-02-24 12:25:00,68.0,47.6,29.82,SE,135,4.0,6.0,48,0.00,,,0.00,777,Wunderground v.1.15,2013-02-24 18:25:00,
2013-02-24 12:30:00,68.2,47.2,29.82,SE,130,5.0,7.0,47,0.00,,,0.00,779,Wunderground v.1.15,2013-02-24 18:30:00,
2013-02-24 12:35:00,68.4,47.4,29.81,SE,138,5.0,7.0,47,0.00,,,0.00,780,Wunderground v.1.15,2013-02-24 18:35:00,
2013-02-24 12:45:00,68.9,47.3,29.81,NE,41,6.0,7.0,46,0.00,,,0.00,782,Wunderground v.1.15,2013-02-24 18:45:00,
2013-02-24 12:50:00,69.1,46.9,29.80,ESE,123,6.0,6.0,45,0.00,,,0.00,782,Wunderground v.1.15,2013-02-24 18:50:00,
2013-02-24 12:55:00,69.9,48.7,29.80,ENE,69,5.0,6.0,47,0.00,,,0.00,780,Wunderground v.1.15,2013-02-24 18:55:00,
2013-02-24 13:00:00,70.4,48.6,29.79,SSE,159,4.0,4.0,46,0.00,,,0.00,777,Wunderground v.1.15,2013-02-24 19:00:00,
2013-02-24 13:05:00,71.6,49.1,29.79,East,83,3.0,4.0,45,0.00,,,0.00,780,Wunderground v.1.15,2013-02-24 19:05:00,
2013-02-24 13:10:00,71.0,47.4,29.79,ENE,71,5.0,5.0,43,0.00,,,0.00,772,Wunderground v.1.15,2013-02-24 19:10:00,
2013-02-24 13:15:00,70.4,48.0,29.78,ENE,76,6.0,6.0,45,0.00,,,0.00,773,Wunderground v.1.15,2013-02-24 19:15:00,
2013-02-24 13:25:00,71.0,48.0,29.77,ENE,74,6.0,6.0,44,0.00,,,0.00,759,Wunderground v.1.15,2013-02-24 19:25:00,
2013-02-24 13:30:00,70.9,48.5,29.77,ESE,105,6.0,6.0,45,0.00,,,0.00,763,Wunderground v.1.15,2013-02-24 19:30:00,
2013-02-24 13:35:00,71.3,48.9,29.76,SSW,197,6.0,6.0,45,0.00,,,0.00,754,Wunderground v.1.15,2013-02-24 19:35:00,
2013-02-24 13:40:00,71.2,49.4,29.76,East,93,5.0,5.0,46,0.00,,,0.00,754,Wunderground v.1.15,2013-02-24 19:40:00,
2013-02-24 13:45:00,71.3,49.4,29.75,ENE,77,5.0,5.0,46,0.00,,,0.00,751,Wunderground v.1.15,2013-02-24 19:45:00,
2013-02-24 13:50:00,72.0,50.1,29.75,ESE,107,4.0,5.0,46,0.00,,,0.00,742,Wunderground v.1.15,2013-02-24 19:50:00,
2013-02-24 14:00:00,72.1,50.2,29.74,SE,134,5.0,8.0,46,0.00,,,0.00,726,Wunderground v.1.15,2013-02-24 20:00:00,
2013-02-24 14:05:00,72.2,50.3,29.74,East,96,5.0,16.0,46,0.00,,,0.00,737,Wunderground v.1.15,2013-02-24 20:05:00,
2013-02-24 14:10:00,71.9,49.4,29.74,SE,136,5.0,5.0,45,0.00,,,0.00,752,Wunderground v.1.15,2013-02-24 20:10:00,
2013-02-24 14:15:00,71.5,50.2,29.74,East,97,5.0,5.0,47,0.00,,,0.00,520,Wunderground v.1.15,2013-02-24 20:15:00,
2013-02-24 14:20:00,71.9,50.6,29.74,ESE,102,4.0,4.0,47,0.00,,,0.00,689,Wunderground v.1.15,2013-02-24 20:20:00,
2013-02-24 14:30:00,72.6,50.6,29.73,SSE,155,4.0,5.0,46,0.00,,,0.00,675,Wunderground v.1.15,2013-02-24 20:30:00,
2013-02-24 14:35:00,72.5,51.1,29.73,East,84,5.0,9.0,47,0.00,,,0.00,663,Wunderground v.1.15,2013-02-24 20:35:00,
2013-02-24 14:40:00,72.3,50.4,29.72,South,184,5.0,5.0,46,0.00,,,0.00,657,Wunderground v.1.15,2013-02-24 20:40:00,
2013-02-24 14:45:00,73.0,51.0,29.72,SSE,156,5.0,5.0,46,0.00,,,0.00,671,Wunderground v.1.15,2013-02-24 20:45:00,
2013-02-24 14:50:00,73.5,50.9,29.71,SSE,160,5.0,5.0,45,0.00,,,0.00,763,Wunderground v.1.15,2013-02-24 20:50:00,
2013-02-24 14:55:00,73.9,51.2,29.71,SE,138,5.0,20.0,45,0.00,,,0.00,696,Wunderground v.1.15,2013-02-24 20:55:00,
2013-02-24 15:05:00,73.5,50.9,29.70,East,85,5.0,11.0,45,0.00,,,0.00,663,Wunderground v.1.15,2013-02-24 21:05:00,
2013-02-24 15:15:00,73.1,51.1,29.69,East,98,6.0,8.0,46,0.00,,,0.00,578,Wunderground v.1.15,2013-02-24 21:15:00,
2013-02-24 15:20:00,73.0,51.0,29.69,East,81,6.0,10.0,46,0.00,,,0.00,578,Wunderground v.1.15,2013-02-24 21:20:00,
2013-02-24 15:25:00,73.0,51.0,29.69,ESE,109,5.0,10.0,46,0.00,,,0.00,555,Wunderground v.1.15,2013-02-24 21:25:00,
2013-02-24 15:30:00,72.9,49.7,29.69,SSE,160,6.0,6.0,44,0.00,,,0.00,538,Wunderground v.1.15,2013-02-24 21:30:00,
2013-02-24 15:40:00,73.0,51.0,29.69,ESE,116,6.0,6.0,46,0.00,,,0.00,202,Wunderground v.1.15,2013-02-24 21:40:00,
2013-02-24 15:45:00,72.6,50.6,29.69,ESE,122,5.0,8.0,46,0.00,,,0.00,241,Wunderground v.1.15,2013-02-24 21:45:00,
2013-02-24 15:55:00,71.3,49.4,29.70,ESE,123,5.0,5.0,46,0.00,,,0.00,160,Wunderground v.1.15,2013-02-24 21:55:00,
2013-02-24 16:00:00,70.9,50.2,29.69,ENE,71,5.0,10.0,48,0.00,,,0.00,160,Wunderground v.1.15,2013-02-24 22:00:00,
2013-02-24 16:05:00,70.7,51.1,29.69,ENE,63,4.0,10.0,50,0.00,,,0.00,156,Wunderground v.1.15,2013-02-24 22:05:00,
2013-02-24 16:10:00,70.6,51.1,29.69,ESE,119,5.0,5.0,50,0.00,,,0.00,162,Wunderground v.1.15,2013-02-24 22:10:00,
2013-02-24 16:15:00,70.6,51.6,29.69,SE,136,4.0,5.0,51,0.00,,,0.00,130,Wunderground v.1.15,2013-02-24 22:15:00,
2013-02-24 16:20:00,70.3,51.3,29.69,ESE,110,3.0,3.0,51,0.00,,,0.00,125,Wunderground v.1.15,2013-02-24 22:20:00,
2013-02-24 16:25:00,70.3,51.3,29.69,East,89,4.0,4.0,51,0.00,,,0.00,148,Wunderground v.1.15,2013-02-24 22:25:00,
2013-02-24 16:30:00,70.2,51.7,29.69,East,98,4.0,7.0,52,0.00,,,0.00,237,Wunderground v.1.15,2013-02-24 22:30:00,
2013-02-24 16:35:00,70.4,51.9,29.68,East,84,4.0,7.0,52,0.00,,,0.00,218,Wunderground v.1.15,2013-02-24 22:35:00,
2013-02-24 16:45:00,70.3,51.8,29.69,East,86,4.0,4.0,52,0.00,,,0.00,134,Wunderground v.1.15,2013-02-24 22:45:00,
2013-02-24 16:50:00,70.1,52.2,29.69,SE,129,4.0,5.0,53,0.00,,,0.00,123,Wunderground v.1.15,2013-02-24 22:50:00,
2013-02-24 16:55:00,69.9,52.0,29.69,ESE,121,4.0,5.0,53,0.00,,,0.00,130,Wunderground v.1.15,2013-02-24 22:55:00,
2013-02-24 17:00:00,69.9,51.5,29.68,East,94,4.0,10.0,52,0.00,,,0.00,169,Wunderground v.1.15,2013-02-24 23:00:00,
2013-02-24 17:10:00,69.7,52.3,29.68,SE,144,4.0,5.0,54,0.00,,,0.00,181,Wunderground v.1.15,2013-02-24 23:10:00,
2013-02-24 17:15:00,69.5,52.1,29.68,ENE,69,4.0,5.0,54,0.00,,,0.00,107,Wunderground v.1.15,2013-02-24 23:15:00,
2013-02-24 17:20:00,69.2,52.3,29.68,NE,38,4.0,4.0,55,0.00,,,0.00,105,Wunderground v.1.15,2013-02-24 23:20:00,
2013-02-24 17:25:00,69.1,52.2,29.68,SE,136,3.0,4.0,55,0.00,,,0.00,77,Wunderground v.1.15,2013-02-24 23:25:00,
2013-02-24 17:30:00,68.9,52.1,29.68,SE,127,3.0,3.0,55,0.00,,,0.00,65,Wunderground v.1.15,2013-02-24 23:30:00,
2013-02-24 17:35:00,68.7,52.4,29.69,ESE,117,3.0,3.0,56,0.00,,,0.00,60,Wunderground v.1.15,2013-02-24 23:35:00,
2013-02-24 17:45:00,68.3,52.5,29.68,East,86,4.0,4.0,57,0.00,,,0.00,51,Wunderground v.1.15,2013-02-24 23:45:00,
2013-02-24 17:50:00,68.1,52.8,29.68,SE,133,2.0,2.0,58,0.00,,,0.00,35,Wunderground v.1.15,2013-02-24 23:50:00,
2013-02-24 17:55:00,67.9,53.0,29.68,ESE,107,2.0,2.0,59,0.00,,,0.00,16,Wunderground v.1.15,2013-02-24 23:55:00,
2013-02-24 18:00:00,67.8,53.4,29.69,SSE,160,2.0,4.0,60,0.00,,,0.00,9,Wunderground v.1.15,2013-02-25 00:00:00,
2013-02-24 18:10:00,67.7,53.8,29.68,ESE,120,2.0,4.0,61,0.00,,,0.00,7,Wunderground v.1.15,2013-02-25 00:10:00,
2013-02-24 18:15:00,67.5,53.6,29.68,ESE,122,2.0,4.0,61,0.00,,,0.00,7,Wunderground v.1.15,2013-02-25 00:15:00,
2013-02-24 18:20:00,67.4,53.5,29.68,East,84,1.0,5.0,61,0.00,,,0.00,0,Wunderground v.1.15,2013-02-25 00:20:00,
2013-02-24 18:25:00,67.3,53.8,29.68,East,80,2.0,5.0,62,0.00,,,0.00,0,Wunderground v.1.15,2013-02-25 00:25:00,
2013-02-24 18:30:00,67.2,54.2,29.68,SE,142,3.0,5.0,63,0.00,,,0.00,0,Wunderground v.1.15,2013-02-25 00:30:00,
2013-02-24 18:35:00,67.2,54.2,29.68,East,94,3.0,5.0,63,0.00,,,0.00,0,Wunderground v.1.15,2013-02-25 00:35:00,
2013-02-24 18:45:00,66.9,53.9,29.67,East,88,3.0,3.0,63,0.00,,,0.00,0,Wunderground v.1.15,2013-02-25 00:45:00,
2013-02-24 18:50:00,66.8,53.8,29.67,East,100,2.0,6.0,63,0.00,,,0.00,0,Wunderground v.1.15,2013-02-25 00:50:00,
2013-02-24 18:55:00,66.8,53.8,29.68,SE,130,2.0,6.0,63,0.00,,,0.00,0,Wunderground v.1.15,2013-02-25 00:55:00,
2013-02-24 19:00:00,66.8,53.8,29.69,ESE,111,3.0,8.0,63,0.00,,,0.00,0,Wunderground v.1.15,2013-02-25 01:00:00,
2013-02-24 19:05:00,66.9,53.9,29.69,ESE,121,3.0,8.0,63,0.00,,,0.00,0,Wunderground v.1.15,2013-02-25 01:05:00,
2013-02-24 19:10:00,67.0,54.0,29.69,ESE,104,3.0,3.0,63,0.00,,,0.00,0,Wunderground v.1.15,2013-02-25 01:10:00,
2013-02-24 19:15:00,66.9,54.3,29.69,ENE,78,2.0,3.0,64,0.00,,,0.00,0,Wunderground v.1.15,2013-02-25 01:15:00,
2013-02-24 19:25:00,66.8,54.7,29.69,East,97,1.0,2.0,65,0.00,,,0.00,0,Wunderground v.1.15,2013-02-25 01:25:00,
2013-02-24 19:30:00,66.7,54.6,29.68,ENE,65,2.0,3.0,65,0.00,,,0.00,0,Wunderground v.1.15,2013-02-25 01:30:00,
2013-02-24 19:40:00,66.7,54.6,29.68,ESE,113,4.0,8.0,65,0.00,,,0.00,0,Wunderground v.1.15,2013-02-25 01:40:00,
2013-02-24 19:45:00,66.6,54.9,29.68,East,88,4.0,8.0,66,0.00,,,0.00,0,Wunderground v.1.15,2013-02-25 01:45:00,
2013-02-24 19:50:00,66.5,54.4,29.68,East,84,3.0,3.0,65,0.00,,,0.00,0,Wunderground v.1.15,2013-02-25 01:50:00,
2013-02-24 20:00:00,66.1,54.8,29.68,SE,144,3.0,4.0,67,0.00,,,0.00,0,Wunderground v.1.15,2013-02-25 02:00:00,
2013-02-24 20:05:00,66.0,55.5,29.68,ESE,123,3.0,4.0,69,0.00,,,0.00,0,Wunderground v.1.15,2013-02-25 02:05:00,
2013-02-24 20:10:00,65.8,55.3,29.67,East,94,3.0,3.0,69,0.00,,,0.00,0,Wunderground v.1.15,2013-02-25 02:10:00,
2013-02-24 20:15:00,65.6,55.5,29.67,ESE,109,4.0,4.0,70,0.00,,,0.00,0,Wunderground v.1.15,2013-02-25 02:15:00,
2013-02-24 20:20:00,65.4,55.4,29.67,ESE,118,4.0,4.0,70,0.00,,,0.00,0,Wunderground v.1.15,2013-02-25 02:20:00,
2013-02-24 20:30:00,65.1,55.8,29.68,ESE,107,3.0,4.0,72,0.00,,,0.00,0,Wunderground v.1.15,2013-02-25 02:30:00,
2013-02-24 20:35:00,65.0,55.8,29.68,ESE,113,3.0,4.0,72,0.00,,,0.00,0,Wunderground v.1.15,2013-02-25 02:35:00,
2013-02-24 20:40:00,64.9,55.7,29.68,East,86,3.0,3.0,72,0.00,,,0.00,0,Wunderground v.1.15,2013-02-25 02:40:00,
2013-02-24 20:45:00,64.8,55.6,29.68,SE,138,3.0,5.0,72,0.00,,,0.00,0,Wunderground v.1.15,2013-02-25 02:45:00,
2013-02-24 20:50:00,64.7,55.5,29.67,East,91,2.0,2.0,72,0.00,,,0.00,0,Wunderground v.1.15,2013-02-25 02:50:00,
2013-02-24 21:00:00,64.4,55.9,29.67,SE,134,2.0,2.0,74,0.00,,,0.00,0,Wunderground v.1.15,2013-02-25 03:00:00,
2013-02-24 21:05:00,64.4,55.9,29.67,SE,124,2.0,2.0,74,0.00,,,0.00,0,Wunderground v.1.15,2013-02-25 03:05:00,
2013-02-24 21:10:00,64.4,55.9,29.67,East,80,2.0,2.0,74,0.00,,,0.00,0,Wunderground v.1.15,2013-02-25 03:10:00,
2013-02-24 21:15:00,64.4,56.3,29.67,East,98,2.0,2.0,75,0.00,,,0.00,0,Wunderground v.1.15,2013-02-25 03:15:00,
2013-02-24 21:20:00,64.3,56.2,29.67,ESE,113,2.0,2.0,75,0.00,,,0.00,0,Wunderground v.1.15,2013-02-25 03:20:00,
2013-02-24 21:30:00,64.2,56.1,29.67,SE,133,1.0,1.0,75,0.00,,,0.00,0,Wunderground v.1.15,2013-02-25 03:30:00,
2013-02-24 21:35:00,64.2,56.1,29.67,ESE,109,2.0,3.0,75,0.00,,,0.00,0,Wunderground v.1.15,2013-02-25 03:35:00,
2013-02-24 21:40:00,64.1,56.4,29.66,East,91,2.0,3.0,76,0.00,,,0.00,0,Wunderground v.1.15,2013-02-25 03:40:00,
2013-02-24 21:45:00,64.1,56.4,29.66,SSW,192,2.0,3.0,76,0.00,,,0.00,0,Wunderground v.1.15,2013-02-25 03:45:00,
2013-02-24 21:50:00,64.1,56.4,29.66,East,94,1.0,1.0,76,0.00,,,0.00,0,Wunderground v.1.15,2013-02-25 03:50:00,
2013-02-24 22:00:00,64.0,56.6,29.65,SE,130,2.0,3.0,77,0.00,,,0.00,0,Wunderground v.1.15,2013-02-25 04:00:00,
2013-02-24 22:05:00,63.9,56.5,29.65,ESE,121,3.0,3.0,77,0.00,,,0.00,0,Wunderground v.1.15,2013-02-25 04:05:00,
2013-02-24 22:10:00,63.8,56.8,29.65,ESE,122,3.0,3.0,78,0.00,,,0.00,0,Wunderground v.1.15,2013-02-25 04:10:00,
2013-02-24 22:15:00,63.8,57.2,29.65,East,80,3.0,3.0,79,0.00,,,0.00,0,Wunderground v.1.15,2013-02-25 04:15:00,
2013-02-24 22:20:00,63.7,57.1,29.65,NE,56,4.0,4.0,79,0.00,,,0.00,0,Wunderground v.1.15,2013-02-25 04:20:00,
2013-02-24 22:30:00,63.5,56.9,29.64,SE,144,2.0,2.0,79,0.00,,,0.00,0,Wunderground v.1.15,2013-02-25 04:30:00,
2013-02-24 22:35:00,63.4,56.8,29.64,SE,127,2.0,2.0,79,0.00,,,0.00,0,Wunderground v.1.15,2013-02-25 04:35:00,
2013-02-24 22:40:00,63.4,57.1,29.63,ESE,105,2.0,5.0,80,0.00,,,0.00,0,Wunderground v.1.15,2013-02-25 04:40:00,
2013-02-24 22:45:00,63.2,56.9,29.63,ENE,60,3.0,5.0,80,0.00,,,0.00,0,Wunderground v.1.15,2013-02-25 04:45:00,
2013-02-24 22:50:00,63.1,57.2,29.62,ESE,103,3.0,3.0,81,0.00,,,0.00,0,Wunderground v.1.15,2013-02-25 04:50:00,
2013-02-24 23:00:00,62.9,57.3,29.61,East,90,2.0,2.0,82,0.00,,,0.00,0,Wunderground v.1.15,2013-02-25 05:00:00,
2013-02-24 23:05:00,62.8,57.6,29.60,ENE,61,2.0,7.0,83,0.00,,,0.00,0,Wunderground v.1.15,2013-02-25 05:05:00,
2013-02-24 23:10:00,62.8,57.6,29.60,ENE,59,2.0,3.0,83,0.00,,,0.00,0,Wunderground v.1.15,2013-02-25 05:10:00,
2013-02-24 23:15:00,62.7,57.5,29.60,East,95,4.0,10.0,83,0.00,,,0.00,0,Wunderground v.1.15,2013-02-25 05:15:00,
2013-02-24 23:20:00,62.6,57.7,29.59,East,97,4.0,4.0,84,0.00,,,0.00,0,Wunderground v.1.15,2013-02-25 05:20:00,
2013-02-24 23:25:00,62.6,57.7,29.59,ENE,71,4.0,4.0,84,0.00,,,0.00,0,Wunderground v.1.15,2013-02-25 05:25:00,
2013-02-24 23:30:00,62.5,57.9,29.59,East,79,5.0,5.0,85,0.00,,,0.00,0,Wunderground v.1.15,2013-02-25 05:30:00,
2013-02-24 23:35:00,62.5,57.9,29.59,East,90,3.0,5.0,85,0.00,,,0.00,0,Wunderground v.1.15,2013-02-25 05:35:00,
2013-02-24 23:45:00,62.2,57.6,29.58,ESE,104,2.0,4.0,85,0.00,,,0.00,0,Wunderground v.1.15,2013-02-25 05:45:00,
2013-02-24 23:55:00,62.0,57.8,29.58,ESE,117,3.0,4.0,86,0.00,,,0.00,0,Wunderground v.1.15,2013-02-25 05:55:00,